This is the latest recevied weather packets stored in our database for station/object WW5JC. If no packets are shown the sender has not sent any weather packets the latest 10 day(s).
| Time | Temp. | Humidity | Pressure | Rain* | Wind** | Luminosity | Snow |
|---|---|---|---|---|---|---|---|
| 1788044910 | 36.67° C | 33% | 1016.1 hPa | 0 mm | - | 136 W/m² | - |
| 1788044604 | 36.67° C | 33% | 1016.1 hPa | 0 mm | - | 149 W/m² | - |
| 1788044304 | 36.67° C | 32% | 1016.3 hPa | 0 mm | - | 163 W/m² | - |
| 1788043999 | 37.22° C | 33% | 1016.3 hPa | 0 mm | - | 175 W/m² | - |
| 1788043694 | 37.22° C | 33% | 1016.3 hPa | 0 mm | - | 189 W/m² | - |
| 1788043384 | 36.67° C | 33% | 1016.4 hPa | 0 mm | - | 184 W/m² | - |
| 1788043083 | 37.22° C | 32% | 1016.4 hPa | 0 mm | - | 210 W/m² | - |
| 1788042779 | 37.22° C | 33% | 1016.3 hPa | 0 mm | - | 225 W/m² | - |
| 1788042478 | 36.67° C | 33% | 1016.4 hPa | 0 mm | - | 239 W/m² | - |
| 1788042173 | 36.11° C | 34% | 1016.4 hPa | 0 mm | - | 256 W/m² | - |
| 1788041868 | 36.67° C | 33% | 1016.5 hPa | 0 mm | - | 72 W/m² | - |
| 1788041563 | 36.67° C | 33% | 1016.4 hPa | 0 mm | - | 147 W/m² | - |
| 1788041259 | 36.67° C | 33% | 1016.6 hPa | 0 mm | - | 91 W/m² | - |
| 1788040957 | 37.78° C | 32% | 1016.6 hPa | 0 mm | - | 105 W/m² | - |
| 1788040656 | 37.78° C | 31% | 1016.5 hPa | 0 mm | - | 342 W/m² | - |
| 1788040351 | 37.78° C | 31% | 1016.5 hPa | 0 mm | - | 354 W/m² | - |
| 1788040051 | 38.33° C | 32% | 1016.5 hPa | 0 mm | - | 362 W/m² | - |
| 1788039747 | 37.78° C | 31% | 1016.5 hPa | 0 mm | - | 367 W/m² | - |
| 1788039447 | 37.22° C | 31% | 1016.7 hPa | 0 mm | - | 380 W/m² | - |
| 1788039142 | 37.78° C | 32% | 1016.6 hPa | 0 mm | - | 389 W/m² | - |
| 1788038838 | 37.22° C | 33% | 1016.6 hPa | 0 mm | - | 408 W/m² | - |
| 1788038533 | 37.78° C | 33% | 1017 hPa | 0 mm | - | 425 W/m² | - |
| 1788038232 | 37.22° C | 33% | 1017 hPa | 0 mm | - | 443 W/m² | - |
| 1788037927 | 37.22° C | 35% | 1016.8 hPa | 0 mm | - | 451 W/m² | - |
| 1788037622 | 37.78° C | 33% | 1017.1 hPa | 0 mm | - | 460 W/m² | - |
* Rain latest hour (hover to see other rain measurements)
** Current wind speed in m/s (hover to see current wind gust speed)